Theta_e
346 348 350 351 354 356 359 360 361 362 359 356 356 356 353 357 358 356 358 358 362 364 365 362 364 369 362 365 363 363 358 355 361 359 358 359 355 353 353 354 352 353 352
345 347 348 350 352 355 358 360 361 363 361 356 358 358 357 359 351 352 355 359 357 361 366 365 362 364 363 363 364 363 362 360 360 353 355 346 356 352 354 354 354 355 353
344 345 346 350 353 352 355 357 359 361 358 360 360 359 358 357 349 352 353 349 347 354 360 361 363 368 368 358 362 364 360 355 362 358 353 347 345 355 352 353 355 355 353
344 345 343 347 349 351 353 357 360 359 359 364 359 359 353 347 346 347 345 348 355 356 359 357 358 365 366 366 363 360 359 361 355 361 354 355 355 343 344 352 352 356 355
338 340 341 343 349 352 350 357 360 362 364 363 361 359 357 352 352 353 357 358 360 359 356 358 359 354 361 364 366 367 363 362 360 354 358 358 352 355 346 342 355 349 352
338 342 343 347 349 352 352 356 357 359 360 360 362 363 359 357 354 354 352 353 353 354 357 357 357 361 360 359 365 365 364 359 359 359 362 356 351 348 348 346 345 345 348
341 342 344 350 351 352 353 354 356 356 359 360 361 363 364 358 354 354 352 353 351 351 354 357 356 355 357 359 362 360 362 362 360 358 357 364 356 352 353 351 343 343 347
342 341 347 352 352 351 352 353 355 357 360 359 363 361 357 354 357 357 354 353 352 352 357 356 357 355 352 351 356 356 360 361 359 357 357 358 363 359 352 349 353 341 351
342 343 349 351 352 352 353 354 355 361 363 363 359 356 358 357 356 357 357 351 352 349 355 356 356 355 351 350 347 350 347 355 360 359 360 361 365 364 362 353 350 347 341
343 346 349 351 353 354 354 356 363 363 361 356 352 352 355 359 359 356 353 352 351 352 353 357 355 355 353 351 345 343 348 348 351 352 353 358 365 365 367 366 361 362 354
343 347 351 354 356 357 358 360 359 356 352 353 353 352 353 351 350 349 348 348 350 351 350 354 354 355 354 353 351 347 345 344 344 345 346 347 355 362 363 363 355 358 360
344 347 350 352 353 355 355 354 354 353 354 357 356 353 349 346 342 344 346 348 347 349 350 350 350 351 352 355 353 351 349 345 344 343 343 344 349 354 359 351 348 349 358
346 347 349 352 353 354 356 356 356 355 354 352 346 345 346 346 345 344 348 348 349 349 349 351 350 349 350 352 354 353 351 350 350 350 346 345 346 345 354 354 351 350 353
347 346 346 350 353 354 357 358 358 358 353 348 344 346 347 348 345 348 350 350 350 350 350 349 348 347 347 348 350 350 350 351 352 354 351 348 347 344 346 346 350 346 346
345 344 343 348 353 354 355 356 357 358 357 351 353 349 351 353 353 352 352 353 351 349 347 346 344 344 342 339 342 342 344 348 348 348 348 352 351 346 344 346 346 348 348
345 345 345 347 351 351 350 351 355 353 351 348 348 351 353 354 352 353 352 352 350 347 347 344 344 343 339 334 333 335 340 341 343 343 344 346 348 347 341 340 341 345 344
345 346 345 345 346 346 349 350 355 353 350 349 350 351 352 351 351 352 352 351 348 346 345 344 344 342 343 332 330 331 336 341 341 343 343 343 339 343 348 343 337 339 337
345 343 340 341 345 348 348 354 353 351 348 348 348 349 351 351 351 353 350 349 347 346 345 344 344 343 341 330 328 328 336 337 340 343 345 347 348 348 347 348 346 347 349
342 339 338 341 345 348 351 352 348 348 347 346 348 351 351 350 349 346 347 347 346 345 344 344 344 342 342 329 325 327 333 332 335 339 345 348 347 338 335 347 345 346 346
340 338 339 340 342 346 349 349 347 346 348 350 349 349 348 347 345 345 343 344 343 341 339 339 340 335 340 330 323 326 331 332 331 335 342 334 338 323 321 341 345 343 344
336 340 338 335 341 345 347 345 344 342 343 344 344 342 341 339 339 338 338 337 335 334 334 333 334 336 335 337 323 321 331 330 329 328 329 334 320 316 316 318 339 343 343
335 335 332 331 337 343 341 338 334 335 337 337 336 335 334 332 330 331 331 330 329 328 328 329 327 328 332 324 322 319 319 324 328 329 330 332 316 315 314 319 325 325 327
331 334 331 329 329 331 332 329 330 331 331 331 329 328 328 326 327 327 326 324 326 323 323 322 321 322 325 327 318 317 317 320 324 328 326 319 316 314 317 317 318 320 337
333 330 328 325 324 326 327 326 326 327 325 325 324 324 324 321 324 323 322 321 320 319 317 316 316 317 318 319 318 316 318 319 322 323 325 322 319 318 322 325 329 335 336
332 331 328 326 325 325 323 323 324 324 322 322 322 321 320 321 321 321 320 318 319 313 313 313 313 312 311 312 305 304 309 313 314 310 322 323 324 325 326 329 332 336 337
333 331 329 327 324 322 321 322 322 322 321 319 319 317 318 318 317 317 317 311 308 305 303 301 304 310 306 301 299 298 298 299 302 314 321 322 323 324 323 325 325 330 330
Wind_Speed
8 7 7 8 8 8 9 9 10 8 7 7 6 5 3 5 5 6 7 8 6 7 9 9 10 10 11 10 10 9 11 9 9 6 8 9 11 12 7 11 11 12 13
8 8 8 9 9 9 8 8 9 9 8 6 6 4 5 3 2 3 2 4 6 8 11 12 12 13 10 12 11 11 7 9 6 5 5 4 5 8 12 13 11 12 12
8 9 10 10 10 9 9 8 8 9 9 7 5 4 3 3 3 2 3 3 3 8 14 15 12 12 10 12 13 11 12 8 6 9 5 4 3 2 6 11 10 10 12
9 7 6 12 12 11 10 10 10 10 9 10 8 8 6 4 3 5 2 7 9 8 10 11 13 14 10 13 12 12 12 10 9 5 10 11 4 3 3 4 7 10 11
5 6 5 5 9 13 12 10 10 11 9 9 5 7 7 6 4 4 5 4 4 6 8 10 12 11 10 13 14 12 11 8 8 7 5 8 9 9 9 8 5 9 8
6 5 4 7 9 12 12 12 11 10 10 9 8 8 6 6 4 2 4 4 5 5 6 10 11 10 10 11 12 12 14 12 10 8 9 9 8 8 9 9 10 10 9
9 7 7 9 11 14 14 12 11 10 10 10 8 7 6 5 4 4 3 6 5 5 7 10 10 9 10 10 11 9 10 11 11 12 9 8 10 7 7 8 9 9 8
8 7 6 8 10 12 12 11 12 10 10 10 8 7 6 3 1 1 5 6 7 7 9 9 9 9 10 8 7 6 7 8 9 13 11 8 9 9 11 11 7 6 8
9 9 9 9 10 11 12 12 12 11 11 10 8 7 5 3 4 4 5 5 6 8 10 9 8 8 4 7 5 4 3 5 8 10 10 10 8 8 8 11 10 10 6
11 10 10 11 11 12 12 13 11 10 9 9 7 6 5 1 2 3 5 5 6 8 10 9 8 7 5 5 4 4 5 5 5 5 7 9 9 9 8 8 8 9 11
13 12 10 10 12 13 13 13 12 12 11 8 6 6 5 5 3 2 3 4 5 7 8 9 8 9 7 5 4 6 6 6 6 5 7 9 11 8 7 7 7 8 8
14 13 12 11 11 11 12 12 12 12 11 10 9 8 6 4 5 3 1 1 4 5 6 8 9 10 8 7 7 8 7 7 7 5 5 8 5 9 8 5 5 7 10
14 13 12 12 12 11 12 12 11 11 12 11 10 9 8 8 6 5 2 2 4 6 7 7 9 10 11 9 6 8 7 9 9 8 7 7 5 7 6 8 5 5 5
16 14 13 13 12 11 10 10 9 9 9 10 8 9 7 6 4 3 3 3 4 6 7 8 9 10 10 10 8 7 6 7 8 9 9 7 7 8 7 6 7 5 6
18 15 12 10 12 10 10 10 9 8 9 8 6 7 5 5 5 5 4 5 5 6 7 8 9 10 10 6 10 11 11 10 10 10 9 8 8 11 10 5 6 7 6
15 14 12 9 10 12 12 10 10 11 10 9 6 4 3 6 7 6 7 7 5 6 6 9 10 10 9 10 9 9 11 11 11 11 11 11 9 11 13 12 14 12 8
11 11 8 6 8 11 10 10 10 10 9 7 5 5 6 7 7 8 8 6 6 7 7 8 9 9 10 6 7 10 11 11 10 11 12 12 10 7 9 10 10 12 16
12 9 5 2 8 8 7 6 8 7 6 4 4 4 5 6 8 7 5 7 7 8 8 9 10 10 9 3 3 10 12 11 11 13 12 12 12 11 10 11 11 11 11
9 7 5 6 3 2 4 7 6 5 4 4 4 4 5 5 5 6 7 8 9 9 10 10 11 12 11 5 5 9 13 11 12 13 12 11 11 10 4 9 12 11 10
12 11 12 6 7 5 4 6 6 4 3 5 5 5 5 6 7 8 9 9 10 12 11 13 13 13 13 8 5 8 11 13 11 12 12 10 8 8 9 8 11 12 10
16 12 9 9 10 8 2 6 8 7 7 6 5 6 6 7 6 8 9 9 11 11 12 13 12 13 12 10 4 3 11 11 11 11 11 9 6 7 6 5 10 12 10
17 17 15 5 9 5 4 8 8 7 6 6 6 6 7 7 8 9 9 9 9 11 10 10 10 9 9 7 6 7 7 9 11 12 11 11 16 14 12 9 6 5 7
9 7 14 14 7 3 5 7 7 7 6 6 6 7 7 8 7 8 8 9 8 9 10 10 10 10 10 9 14 16 15 14 13 12 13 13 14 17 13 18 10 7 8
11 12 14 14 8 6 7 7 7 7 7 7 8 8 7 8 8 7 7 8 8 9 9 9 10 11 12 11 11 12 14 17 15 12 12 17 20 22 21 11 11 9 10
13 12 12 10 9 7 8 8 7 6 6 5 5 6 6 7 7 6 6 6 6 7 9 9 9 10 10 11 13 11 11 13 15 16 14 13 12 12 11 9 6 4 7
13 12 11 10 9 8 7 6 6 6 6 4 4 6 6 5 6 6 6 8 5 6 7 7 7 10 10 14 16 17 18 18 15 11 12 12 10 9 8 6 6 7 7
Wind_Direction
193 172 188 207 212 209 207 207 200 181 191 194 197 224 255 200 238 269 306 281 264 284 271 263 264 255 251 257 229 236 234 236 218 229 238 250 226 226 255 250 241 231 229
191 192 186 188 196 196 190 199 204 187 200 204 209 205 195 222 348 273 5 17 344 337 295 276 263 258 250 238 245 226 226 251 207 234 251 262 225 232 225 231 241 237 242
221 188 183 195 183 184 176 185 195 184 193 205 176 178 196 229 231 220 151 213 288 261 286 283 273 273 252 247 236 225 221 222 232 230 235 259 240 297 193 215 219 219 237
207 228 197 178 188 176 173 178 186 191 205 192 187 191 209 213 196 246 205 274 260 281 298 299 298 283 260 253 242 230 226 215 226 224 222 229 265 279 249 241 212 208 234
197 190 169 142 175 171 173 170 169 180 176 182 210 191 217 227 265 282 291 299 316 312 305 302 292 277 273 257 251 238 216 207 221 211 227 246 228 227 250 248 209 237 230
145 151 123 141 156 160 165 162 164 175 176 181 184 204 210 230 264 319 317 313 295 320 336 329 317 298 277 261 252 244 227 217 216 216 214 225 230 230 230 239 255 242 244
157 149 144 148 156 162 161 167 170 175 178 178 175 188 190 180 194 282 322 319 310 314 325 323 335 330 315 281 253 236 232 221 220 222 236 216 232 253 239 229 256 274 246
122 125 130 140 153 161 156 166 176 176 178 176 162 143 150 159 252 296 337 313 323 322 327 318 326 340 346 336 294 243 229 234 230 237 234 235 228 223 238 239 242 258 279
143 139 134 136 144 150 153 160 172 162 159 145 143 136 125 86 21 349 323 2 341 335 339 318 320 332 342 329 336 344 313 299 240 239 242 241 245 238 244 235 226 226 244
151 142 139 143 140 136 142 147 149 141 133 140 146 141 128 118 52 6 9 356 346 349 344 342 324 321 308 266 274 308 296 277 271 274 286 268 264 249 243 242 239 238 243
159 156 149 147 140 138 143 143 141 140 142 143 148 163 169 146 128 62 16 356 359 350 353 355 344 322 317 283 252 240 239 250 268 266 280 274 270 262 251 243 248 250 243
162 160 156 150 146 144 145 147 152 153 152 149 166 168 162 162 140 147 148 325 360 347 349 349 349 343 340 303 268 260 241 237 251 252 294 288 293 275 257 233 247 253 257
162 165 153 161 165 167 162 159 163 164 161 161 164 162 168 179 180 179 196 335 342 343 348 346 342 340 339 347 311 267 263 257 260 246 233 245 264 283 282 267 246 246 255
171 169 172 177 180 174 172 170 171 170 171 169 157 163 198 213 229 147 221 272 323 323 338 339 334 330 327 320 345 340 314 307 284 272 259 261 248 246 250 258 261 262 261
181 172 165 168 181 164 174 166 167 174 168 178 169 176 208 255 278 284 289 297 302 324 330 335 334 328 316 352 350 322 308 305 302 299 293 263 252 248 237 243 253 246 257
187 178 182 159 173 176 168 165 158 164 167 180 167 191 243 260 277 265 274 288 289 303 320 333 332 331 321 39 351 322 311 298 294 294 295 293 255 244 231 237 237 243 234
179 190 192 214 196 187 172 169 166 161 165 173 169 204 240 261 283 279 278 281 300 301 311 322 321 321 317 45 346 333 316 311 308 295 288 286 279 255 266 250 236 243 239
172 77 360 109 147 150 157 152 153 161 167 183 219 245 269 291 283 274 286 299 297 298 306 310 312 309 306 35 334 324 305 308 309 306 294 286 284 279 277 281 276 268 270
95 95 49 70 39 197 145 146 156 155 177 229 273 304 305 307 314 303 310 307 303 302 302 301 303 299 297 327 329 325 310 315 308 295 310 304 302 316 313 274 272 275 273
79 43 13 42 37 313 162 144 134 136 55 25 20 10 353 333 329 336 325 322 314 304 315 313 307 302 294 296 5 340 314 309 308 304 294 237 260 41 13 293 273 271 270
106 93 53 48 46 318 263 100 83 63 27 25 28 10 359 334 334 330 324 322 315 314 310 306 307 300 293 297 328 339 320 315 316 301 297 295 61 19 347 302 287 279 312
140 134 106 71 47 344 93 87 74 51 37 17 11 357 344 338 337 327 321 324 313 305 309 305 302 308 327 326 341 326 292 307 303 295 296 301 355 327 305 282 273 297 290
129 101 116 106 96 55 68 78 53 31 13 2 352 347 338 350 334 330 328 317 328 324 327 331 333 329 331 326 36 358 339 328 319 306 311 298 283 274 268 249 244 235 252
117 120 112 108 135 101 78 62 40 21 13 5 356 350 337 343 350 328 347 344 346 345 338 342 337 336 330 343 349 341 328 316 310 324 319 307 283 268 265 284 220 234 251
129 120 122 133 117 93 70 54 43 19 12 11 356 4 349 359 339 358 353 348 7 357 337 335 334 332 328 344 346 331 326 318 310 313 289 287 286 282 286 304 325 304 279
124 127 129 119 109 95 79 64 50 44 24 15 15 46 346 0 358 358 355 178 205 264 305 327 339 338 351 348 330 316 304 298 293 287 282 284 300 293 297 300 301 298 295